GFSWCAN_con_lsi_273.txt.gz
Lid_Strength_Index
2 2 3 4 5 5 5 5 5 5 5 5 4 4 4 4 3 5 5 4 4 4 4 4 4 5 5 5 8 6 7 6 7 10 10 10 10 10 10 10 10 11 11 12 12 13 14 6 7 10 7 5 5 5
2 3 3 4 5 5 5 5 5 4 4 4 4 4 4 4 4 5 4 4 4 3 4 3 3 3 3 3 4 5 6 7 6 9 8 8 9 9 10 13 8 11 9 10 10 10 7 5 6 5 4 5 5 5
2 3 4 5 5 6 6 5 5 4 4 4 5 4 4 4 4 4 5 6 3 3 4 3 4 2 1 1 0 5 4 5 5 4 6 7 10 7 10 10 9 8 7 9 9 8 7 6 5 5 4 4 4 4
3 3 4 5 5 5 5 5 5 5 4 4 4 3 3 3 3 4 4 5 4 4 6 5 2 2 2 1 1 1 2 2 3 5 6 7 8 6 8 8 8 7 7 9 9 7 6 5 5 4 5 4 4 4
3 4 4 5 5 5 5 5 5 4 4 3 3 3 3 3 4 4 4 4 3 4 6 5 3 2 2 1 1 1 2 3 4 6 6 8 6 6 6 6 8 6 8 8 9 6 6 6 4 4 4 4 4 4
3 4 4 5 5 5 5 5 4 4 3 3 3 3 3 4 4 2 5 3 3 3 4 7 2 3 2 1 2 3 3 3 4 5 6 5 5 6 8 9 6 6 5 5 6 4 4 4 4 3 4 4 4 4
4 4 5 5 5 5 5 4 4 3 3 3 3 3 3 4 3 5 6 3 3 2 4 6 6 3 3 3 3 3 3 3 4 5 6 6 6 5 7 9 6 5 4 4 3 4 5 5 4 3 3 4 4 4
4 4 5 5 5 5 4 4 3 3 3 3 3 3 3 3 3 3 2 3 2 2 3 7 7 5 3 5 5 4 4 4 5 5 5 6 5 6 9 7 6 5 4 4 4 4 4 3 3 4 3 4 4 4
4 5 5 6 5 5 4 4 4 3 3 3 3 3 2 3 4 3 2 2 2 2 6 6 8 9 3 5 5 4 4 7 5 6 6 6 8 10 8 7 6 5 5 5 5 5 5 5 4 4 4 4 5 4
4 5 6 5 5 5 4 4 4 4 4 4 2 4 6 4 3 2 3 4 4 5 5 7 5 7 5 5 6 6 5 7 8 7 5 8 9 6 5 4 4 4 4 3 5 7 6 6 5 4 4 4 4 4
5 5 5 5 5 4 4 4 4 4 4 4 5 5 4 3 3 5 7 7 7 7 6 6 6 7 5 7 7 5 7 7 10 8 8 9 9 6 4 4 3 3 3 3 3 3 4 5 5 5 4 4 3 3
4 5 6 5 4 4 4 4 4 4 4 5 5 5 5 6 7 8 9 8 8 8 6 7 6 6 5 4 6 6 8 7 11 6 8 11 7 5 4 4 3 3 3 3 3 4 5 4 4 4 4 4 5 3
4 5 5 4 4 4 4 4 4 4 4 4 6 7 8 8 11 11 11 9 8 6 6 6 7 7 5 5 6 6 9 10 6 9 10 8 6 5 4 4 4 3 3 3 3 2 4 5 5 4 4 4 4 5
4 5 5 4 4 4 4 3 3 3 3 6 8 12 10 10 9 8 8 8 6 6 6 6 7 7 7 6 6 9 7 7 10 12 11 7 6 4 4 3 3 4 3 3 3 3 3 5 5 4 4 4 5 5
5 5 5 4 4 4 4 3 3 3 5 7 7 11 9 7 7 7 6 7 7 6 6 7 6 6 7 7 7 8 10 12 11 11 8 6 5 4 4 3 3 3 3 3 3 3 3 3 5 5 5 5 4 4
6 5 5 4 4 4 4 3 3 3 5 6 7 8 7 7 7 7 7 7 6 6 6 6 8 9 9 8 9 11 11 12 9 7 5 4 4 4 4 3 3 3 3 3 3 2 3 4 5 5 5 4 3 4
5 7 5 5 4 5 4 4 4 6 7 8 8 7 7 7 7 6 6 6 6 5 7 7 10 10 8 9 10 8 10 7 6 5 4 4 4 4 3 3 3 3 3 3 3 4 5 5 5 5 5 4 3 3
6 6 5 5 4 4 4 5 6 7 9 8 8 7 6 6 6 6 6 6 6 7 6 8 7 9 10 11 9 7 5 4 4 4 4 3 3 3 3 3 2 2 3 3 3 3 4 4 4 4 3 3 3 3
7 6 5 5 5 5 7 7 7 10 9 8 8 7 7 6 6 6 6 6 6 6 6 7 9 9 8 6 6 5 5 4 5 4 4 3 2 3 2 2 2 2 3 2 2 2 2 2 3 3 3 3 4 4
6 6 5 5 5 6 8 8 6 8 9 8 7 7 6 6 6 6 6 6 6 7 8 8 8 6 5 5 4 4 3 3 3 4 4 3 2 2 2 2 2 3 2 2 3 6 2 2 3 3 3 4 4 3
6 6 5 5 5 6 7 8 8 8 7 7 7 7 7 6 7 7 7 6 6 7 8 7 6 5 5 4 3 3 3 2 3 3 4 4 2 2 2 2 2 3 3 3 3 3 4 2 2 2 4 4 3 2
6 5 5 5 6 7 7 7 7 7 7 7 7 7 7 8 8 7 6 6 6 6 5 5 5 4 4 4 3 3 2 2 2 2 4 3 3 3 3 2 2 3 3 3 2 3 2 2 1 2 3 3 3 2
5 5 6 6 8 9 9 7 8 8 9 8 7 8 8 7 6 5 7 6 5 4 4 4 4 4 3 2 2 2 2 2 2 2 2 2 2 1 2 2 2 2 3 2 2 2 2 4 2 2 2 1 1 2
5 6 8 8 9 10 8 9 8 8 8 9 9 9 8 7 6 7 8 6 5 5 5 4 4 4 4 3 3 2 1 1 1 1 1 2 2 2 1 1 1 1 2 2 2 2 1 1 5 2 3 3 1 2
9 10 9 12 8 9 10 10 10 9 10 9 10 9 8 6 8 8 8 6 5 5 4 3 3 2 3 3 2 2 1 1 2 3 1 1 2 2 2 2 1 0 1 2 4 4 3 1 1 2 3 3 3 3
12 10 10 9 9 9 9 10 10 10 9 9 9 8 7 7 9 9 6 4 4 3 3 3 3 3 2 2 2 2 2 0 1 2 1 1 1 2 3 3 3 2 1 2 3 5 5 4 3 2 2 2 7 4
11 10 8 7 8 7 8 8 7 8 9 9 8 8 8 10 9 6 3 2 3 2 1 1 2 2 2 2 1 1 0 0 1 1 1 1 0 1 1 2 2 2 1 2 2 4 5 4 3 3 2 2 1 3
8 8 9 7 8 8 9 8 8 8 7 6 6 8 9 8 8 4 3 1 1 1 1 2 2 2 2 2 2 2 1 1 0 1 1 1 1 1 1 0 0 6 3 2 2 3 3 4 4 3 2 2 2 2
8 7 7 8 7 7 7 7 6 5 4 5 7 7 6 4 2 2 2 1 1 1 2 2 2 2 2 2 3 3 3 3 4 5 4 4 3 2 2 2 1 1 2 2 8 7 4 4 4 3 3 2 1 1
8 6 7 7 7 7 5 4 4 3 3 3 3 3 3 3 2 2 1 2 2 3 3 4 4 5 6 6 6 6 5 5 4 5 6 6 5 3 3 3 3 3 2 2 2 2 8 5 4 2 3 3 2 1
4 5 6 6 6 5 4 3 2 3 3 4 6 5 5 4 3 3 3 3 3 3 4 4 4 5 5 6 6 7 7 5 5 6 6 6 5 5 4 3 2 2 2 3 3 3 2 3 3 3 3 4 4 5
5 6 6 7 6 4 3 4 4 5 4 5 5 5 5 5 5 3 3 3 4 4 7 5 5 5 5 5 5 5 9 6 6 6 6 7 6 6 5 4 3 2 2 2 2 3 4 2 3 4 4 4 5 5
5 5 5 6 6 6 4 5 6 6 6 7 6 5 5 5 6 3 3 3 3 3 4 4 4 4 4 5 5 6 7 5 6 9 9 10 10 8 5 4 4 4 4 4 4 3 4 4 3 3 4 4 4 4

GFSWCAN_con_lsi_276.txt.gz
Lid_Strength_Index
2 2 3 4 4 5 5 5 5 5 4 4 5 4 3 3 3 2 1 1 2 4 3 2 2 4 4 4 6 5 6 5 4 7 8 8 8 8 9 9 9 10 10 10 9 11 13 5 6 9 7 5 4 4
2 2 3 4 5 5 5 5 5 5 4 5 4 3 3 3 4 3 1 0 0 2 3 1 1 1 1 2 4 3 6 6 5 6 6 6 8 7 9 11 6 10 8 9 9 10 7 5 5 4 4 5 4 4
2 2 3 4 5 6 5 5 5 5 4 3 3 3 3 3 3 3 1 1 0 2 3 2 3 1 -1 -0 -0 5 3 4 4 3 5 6 9 7 9 9 8 7 6 7 8 7 6 5 4 3 3 3 3 3
2 3 4 5 5 5 5 5 5 5 4 3 3 3 3 3 3 3 2 1 0 2 4 4 -0 1 -0 -0 0 0 2 1 2 2 4 5 7 5 7 7 7 6 6 8 7 6 5 5 4 3 3 2 3 3
3 3 4 5 5 6 6 5 5 4 4 4 3 3 3 3 4 1 1 1 1 3 5 4 1 1 0 0 1 1 1 2 2 4 5 7 4 5 4 5 8 6 7 8 9 5 5 5 3 3 3 3 3 4
3 4 5 5 6 6 5 4 4 4 4 4 3 3 3 3 3 -0 3 1 1 0 3 5 2 2 1 1 1 2 2 2 2 4 5 4 4 5 6 8 6 4 4 4 6 3 3 3 2 2 3 3 3 4
4 4 5 5 5 5 5 4 4 4 4 3 3 3 3 3 1 3 4 2 3 -1 3 5 5 2 1 1 1 1 1 2 3 3 4 4 5 4 6 9 6 5 4 4 3 3 4 3 4 2 2 2 3 3
4 4 5 5 5 5 4 4 4 4 3 3 3 3 3 3 3 3 1 2 2 1 2 5 6 4 2 3 4 2 2 2 3 3 3 5 4 4 8 6 5 4 4 4 3 3 3 2 2 2 2 2 3 3
4 5 5 5 5 5 4 4 4 3 3 3 3 3 1 1 3 2 2 2 -1 1 4 4 6 8 2 3 2 3 3 5 3 5 5 4 6 9 7 6 5 4 4 4 3 3 3 3 3 3 2 4 3 3
5 5 5 5 5 5 4 4 4 3 3 3 2 2 4 2 3 1 1 2 2 1 1 5 2 5 3 3 4 4 3 5 6 6 4 6 8 5 4 4 3 3 3 3 4 5 4 4 4 3 3 4 4 4
5 5 5 6 5 4 4 4 4 3 4 1 2 3 1 2 1 2 4 5 4 5 3 4 4 5 2 6 6 4 5 4 8 7 7 8 8 6 3 3 2 2 2 2 2 2 2 2 3 3 3 3 4 3
4 5 5 5 5 4 4 4 4 1 1 3 2 2 1 2 3 6 6 4 5 7 4 4 4 3 3 2 4 4 6 5 10 4 7 9 7 4 4 3 3 2 2 2 2 2 2 2 2 2 2 4 3 3
5 5 6 6 5 4 4 4 3 4 4 1 3 5 5 5 11 9 9 7 7 5 4 4 5 3 3 2 4 5 8 8 4 7 9 8 5 4 3 3 3 2 2 2 2 2 2 2 1 2 3 2 2 2
5 6 5 5 5 4 4 4 3 2 1 3 6 11 7 8 7 6 7 6 5 4 4 4 4 5 3 5 5 8 6 6 8 10 11 7 5 4 3 3 3 3 2 2 2 2 2 2 2 3 3 2 2 3
5 5 5 4 4 4 3 3 3 0 2 5 5 10 7 5 5 5 5 5 4 3 4 4 4 4 5 6 5 6 8 10 9 10 7 5 4 3 3 3 3 3 2 3 2 2 2 2 2 3 3 2 2 3
4 4 4 4 4 3 3 2 0 -0 2 4 4 6 5 5 6 5 5 5 4 3 2 3 6 7 7 6 8 9 9 10 9 6 4 3 3 3 3 3 3 3 3 3 3 2 2 2 2 2 3 3 3 2
4 4 4 4 4 4 3 1 1 4 4 6 5 3 4 4 5 5 4 5 3 4 5 5 8 9 6 7 9 7 9 7 5 4 3 3 3 3 2 2 2 2 2 2 2 2 2 3 4 5 5 4 2 1
4 4 4 4 3 2 1 2 4 5 7 5 5 4 3 3 4 4 4 4 4 5 5 6 4 7 8 10 8 5 3 3 2 3 3 2 2 2 2 2 2 2 2 2 2 2 3 3 3 4 3 2 2 1
4 4 5 5 3 3 5 5 4 8 6 5 5 4 3 4 3 3 3 3 3 3 4 5 8 7 6 5 5 4 3 2 3 3 1 1 1 2 2 1 1 2 2 2 2 2 2 2 1 1 1 2 2 2
6 5 5 5 4 4 7 6 3 6 7 6 4 4 4 4 3 2 2 3 4 5 6 7 6 5 5 4 2 2 2 1 2 3 3 3 1 1 1 2 2 1 2 2 2 4 2 1 -0 0 1 1 2 2
5 5 4 3 3 4 5 5 6 5 5 5 4 4 4 3 4 4 4 3 5 6 6 4 4 4 2 1 1 1 1 2 3 3 3 3 2 1 1 1 1 1 2 2 3 3 2 2 0 0 1 1 1 1
4 5 3 3 5 5 5 4 4 4 4 4 4 4 5 6 5 4 4 5 5 4 3 3 3 2 3 2 1 1 1 1 1 2 5 3 2 2 2 1 1 2 2 2 2 3 2 2 1 1 1 0 3 1
4 4 4 5 7 8 8 4 6 5 7 7 5 7 6 5 4 3 5 4 3 2 2 1 2 1 1 1 1 1 1 1 2 1 1 1 1 1 1 1 1 2 2 1 1 1 2 4 2 1 1 1 1 1
4 5 7 7 7 9 6 7 5 6 6 6 7 8 7 4 3 4 6 4 3 2 2 2 2 2 2 1 1 1 0 0 1 1 0 1 2 1 1 1 1 0 1 0 1 1 1 1 3 1 1 1 2 1
8 9 7 11 6 8 9 8 8 8 9 8 8 8 6 4 6 7 7 4 3 2 1 1 1 1 2 1 1 0 -0 1 1 2 1 0 1 1 1 1 1 -0 -0 1 1 1 1 1 2 2 2 2 2 2
11 9 9 8 7 8 8 10 9 9 8 8 8 5 4 5 8 9 5 4 3 2 2 2 2 2 2 1 2 2 1 0 0 2 1 0 1 1 2 2 2 2 -0 0 1 2 2 2 3 3 2 3 7 4
10 9 7 4 5 5 6 5 5 6 9 9 6 7 7 9 9 5 2 1 2 1 0 0 1 2 2 1 1 0 -0 -0 0 0 -0 -0 -0 -0 0 2 2 1 -0 0 0 1 2 2 3 3 3 2 2 2
6 6 7 6 6 4 7 7 7 8 6 4 5 8 8 7 6 3 2 0 -0 -1 -1 -1 -1 -0 0 0 0 1 1 1 1 1 1 1 0 -0 -0 -0 -0 6 2 1 1 1 1 2 2 3 3 3 3 2
6 4 4 7 6 6 6 6 6 4 2 3 5 5 5 2 1 1 0 -0 -1 0 1 1 0 0 1 1 1 2 2 3 4 5 5 4 4 3 1 2 2 1 1 1 6 6 2 2 2 2 2 2 2 1
6 4 5 6 7 6 4 2 3 2 1 1 1 2 2 2 0 -1 0 0 1 1 0 0 1 1 2 2 3 2 2 2 3 4 5 6 5 4 4 4 3 2 2 2 1 1 6 4 2 1 2 2 3 2
3 3 5 5 5 3 2 2 1 1 2 2 2 3 4 2 1 0 0 -1 -0 -0 1 1 1 1 2 3 3 4 4 3 3 4 5 6 6 5 6 6 5 4 4 3 2 1 1 2 2 3 2 2 3 4
3 5 4 6 5 3 2 3 3 4 3 4 4 3 3 3 4 1 -0 -0 1 2 5 3 2 2 1 2 2 2 8 4 4 4 4 5 5 5 5 5 5 4 5 4 4 3 2 2 3 2 3 3 2 3
4 3 4 4 5 6 3 4 5 5 4 4 4 3 3 3 5 1 -1 -1 0 1 2 1 1 1 1 2 2 4 6 4 5 9 9 9 9 8 7 6 5 5 5 5 5 4 4 4 4 2 2 3 3 2

GFSWCAN_con_lsi_279.txt.gz
Lid_Strength_Index
2 2 3 4 4 4 5 5 5 4 4 4 4 3 3 4 3 2 0 -1 2 3 3 2 2 4 3 4 6 5 5 5 5 7 7 7 9 8 12 10 9 10 10 10 9 11 15 5 5 8 6 4 4 4
2 3 3 4 5 5 5 5 5 5 4 4 4 4 3 3 3 3 1 -1 -1 2 3 0 0 0 1 1 4 3 5 5 5 7 5 7 8 7 10 12 6 12 7 9 8 10 5 4 5 4 3 4 4 4
2 2 3 4 5 5 5 5 5 5 4 4 4 4 3 3 3 3 0 -1 0 2 3 2 3 0 -1 -0 -0 5 4 3 4 3 5 6 9 7 10 9 8 6 4 7 8 6 5 5 4 3 3 3 3 3
2 3 3 4 5 5 5 5 5 4 4 4 3 3 3 3 3 3 0 -1 0 2 4 4 -0 1 -1 -1 0 0 2 1 2 2 4 6 8 4 7 6 7 6 5 7 9 6 5 5 3 3 3 3 3 3
3 3 3 4 6 5 5 5 5 4 4 3 3 3 3 3 3 1 -1 -1 -1 2 5 4 1 0 0 0 1 1 1 2 3 4 5 7 4 5 4 5 8 5 7 9 9 5 5 4 3 3 3 3 3 3
3 3 4 5 6 5 5 5 5 5 4 3 3 3 3 3 3 -0 2 -0 -0 -0 3 5 1 2 1 1 1 2 1 2 2 4 5 4 4 5 6 9 5 4 4 4 5 3 3 3 2 2 3 2 3 3
3 3 4 5 6 5 5 5 4 4 3 4 3 3 3 3 1 2 3 2 3 -1 3 5 5 2 1 1 1 1 1 1 3 3 5 4 4 5 6 10 5 4 4 3 3 3 4 3 3 2 2 2 3 3
3 4 5 5 6 5 5 4 4 4 4 4 3 3 3 3 3 2 0 2 2 1 2 4 5 4 1 3 4 1 2 2 3 3 3 4 3 4 9 6 5 4 3 3 3 3 3 2 2 2 2 2 4 4
4 4 5 6 6 5 4 4 4 4 4 3 3 3 0 1 2 1 2 2 -2 1 4 4 6 7 1 3 2 3 2 5 2 4 4 4 6 9 7 6 5 4 4 4 3 3 3 3 3 3 2 3 4 4
5 5 6 6 5 4 4 4 4 4 3 3 2 2 3 1 3 1 1 1 2 1 1 4 2 5 3 3 4 4 3 4 7 5 3 6 8 4 4 3 3 3 2 2 4 4 4 4 3 3 3 2 3 3
5 5 6 6 5 5 4 4 4 3 2 1 2 3 0 2 0 1 4 4 3 4 3 3 4 5 2 5 5 3 5 4 8 7 6 8 9 5 3 3 2 2 2 2 2 2 2 2 3 3 2 2 2 2
5 5 6 5 5 5 4 4 4 -0 0 2 2 1 -0 1 3 6 5 4 5 6 3 4 4 3 2 2 4 3 6 5 9 4 7 11 7 4 3 3 2 2 2 2 2 2 2 2 2 2 2 2 2 2
5 5 6 5 5 5 4 4 3 3 3 -1 1 4 4 4 10 8 9 6 6 3 3 3 4 3 3 2 3 4 7 7 3 7 10 9 5 3 3 3 2 2 2 2 2 2 2 2 1 2 2 1 2 2
5 5 5 5 5 4 4 4 3 2 0 3 5 11 5 7 6 5 6 6 4 2 3 3 3 4 3 4 4 8 6 5 8 10 11 7 5 4 3 2 2 3 2 2 2 2 2 2 2 2 1 1 2 2
5 5 5 5 5 4 4 3 3 -1 1 4 4 10 6 4 4 4 3 4 3 2 3 3 3 3 4 5 4 6 8 9 8 11 7 5 3 3 3 3 2 2 2 3 3 2 2 2 2 3 1 1 1 2
5 5 4 5 5 4 4 1 -1 -1 1 3 4 5 4 5 5 4 4 4 3 3 2 3 5 6 6 6 7 8 9 10 8 7 5 3 3 3 2 2 2 2 2 2 3 2 2 2 2 2 1 1 2 2
6 3 5 5 4 3 3 0 -0 4 3 4 4 2 3 4 4 4 4 4 2 3 5 4 8 8 5 6 8 5 8 6 4 3 3 2 3 2 2 2 2 2 2 2 2 2 2 1 1 2 3 2 2 2
2 3 4 4 2 1 -1 1 2 3 5 3 4 4 3 2 3 3 3 2 3 4 4 5 4 7 7 9 7 6 4 3 2 3 3 2 2 2 2 2 2 2 1 2 1 2 1 2 2 2 2 2 2 2
3 3 4 4 2 1 3 3 2 6 4 3 2 1 2 3 2 2 2 2 2 2 3 4 7 7 6 5 5 4 3 3 4 3 2 2 1 2 2 2 2 1 1 1 2 2 2 2 2 2 1 1 2 1
4 4 4 4 3 2 6 4 2 4 5 4 3 3 2 3 2 2 2 2 3 4 5 6 6 5 5 4 3 3 3 2 3 3 3 2 2 2 1 2 2 1 1 1 1 3 2 2 2 2 2 2 2 2
6 3 4 2 1 2 3 4 4 4 4 4 3 3 3 2 3 3 4 3 4 4 5 4 3 3 2 2 2 2 1 2 3 3 3 3 2 2 1 1 1 1 1 1 2 2 3 2 2 1 2 2 1 1
3 5 2 2 4 4 4 2 3 3 3 4 4 3 4 4 4 4 3 4 4 3 3 3 2 2 3 2 1 1 1 1 1 2 5 3 2 2 2 2 2 2 1 1 1 1 1 1 1 1 2 2 2 1
5 3 3 4 6 7 7 2 5 5 7 6 4 6 5 4 3 2 4 3 3 2 2 1 2 1 2 1 1 1 0 1 1 1 1 2 1 1 1 1 1 1 2 1 0 1 1 3 1 1 1 2 2 2
5 4 6 6 6 8 5 6 4 5 5 6 6 7 6 4 2 4 5 4 3 1 2 1 2 2 2 1 2 2 1 1 1 1 1 1 2 1 1 1 1 1 0 0 0 1 0 0 3 1 1 2 2 2
8 8 7 12 6 8 8 8 7 7 8 7 7 7 5 3 5 6 6 4 2 2 2 1 2 2 2 2 2 1 0 1 1 2 1 1 1 1 2 1 1 0 0 1 1 1 1 1 1 1 1 1 2 2
11 7 9 8 7 8 8 9 8 8 7 7 7 4 4 4 8 8 5 3 2 2 2 2 2 3 2 2 2 2 1 0 0 2 1 1 1 2 2 2 2 2 -0 0 1 2 2 1 1 1 2 2 6 3
10 8 6 3 4 5 6 5 5 6 8 8 6 6 6 9 8 5 3 1 1 0 0 0 1 1 2 1 1 0 0 0 0 1 0 1 1 1 1 2 2 1 0 0 0 1 2 2 3 2 2 2 2 3
5 5 8 6 6 4 7 7 7 8 6 4 4 7 8 7 6 3 2 -0 -0 -0 0 -1 -1 -0 0 0 0 0 -0 -0 -0 -0 0 0 0 1 0 -0 -0 7 2 0 0 0 1 1 1 2 2 2 2 1
6 4 4 6 6 6 6 6 5 3 2 3 5 5 4 2 1 1 -0 -0 -1 0 1 1 1 0 -0 -0 -0 -0 0 1 2 3 3 3 3 2 2 2 2 2 3 3 7 7 3 2 1 1 1 1 1 1
5 3 5 6 7 6 4 2 3 2 1 1 1 1 2 2 0 -1 -0 0 1 1 1 1 0 1 1 1 1 1 0 1 2 3 5 5 5 4 4 4 4 4 3 4 4 4 7 4 3 0 1 1 2 3
3 3 5 5 6 4 2 1 0 0 1 1 1 3 3 2 1 -0 -0 -0 0 0 1 1 1 0 1 1 1 2 2 1 1 2 3 4 4 4 4 3 3 3 4 4 5 5 5 5 3 2 1 2 1 3
3 5 5 7 4 2 1 2 3 3 3 4 4 3 3 3 4 1 0 -0 1 1 4 3 1 1 0 0 0 0 7 1 2 2 3 3 3 3 3 4 4 4 4 4 5 5 5 5 5 4 3 3 2 2
3 3 3 3 4 5 2 3 4 5 4 4 4 3 3 3 4 1 -1 -1 -0 1 1 1 1 0 0 1 1 1 4 1 3 8 7 9 9 7 5 4 4 5 5 5 5 5 5 5 5 5 4 4 4 3

GFSWCAN_con_lsi_282.txt.gz
Lid_Strength_Index
3 3 3 4 4 4 4 4 4 4 4 4 4 3 3 3 3 3 0 -2 2 4 3 2 2 4 4 5 7 5 5 5 6 8 8 9 10 9 10 9 12 12 12 12 10 13 16 6 6 9 7 4 4 4
3 2 3 4 5 4 4 5 5 4 4 4 4 3 3 3 4 3 1 -1 -1 2 3 0 1 0 2 2 4 3 5 5 5 7 7 7 10 10 11 13 8 11 8 10 10 11 6 4 5 4 3 4 4 4
2 2 3 5 5 4 5 5 5 4 4 4 4 3 3 4 4 3 0 -0 0 2 3 3 3 0 -0 0 -0 5 4 3 4 2 5 6 11 9 12 12 10 7 6 9 8 7 6 5 4 3 3 3 3 3
2 2 3 5 5 4 4 5 5 4 4 4 4 4 3 3 3 3 0 -0 1 2 5 4 0 1 -0 -0 0 0 2 1 2 3 5 7 9 6 10 8 8 7 6 8 8 7 5 4 4 3 3 3 3 3
3 3 3 5 5 4 5 5 4 5 4 4 4 3 3 3 3 1 -1 -1 -1 3 5 4 1 1 0 0 1 1 1 2 4 5 6 8 6 6 6 6 8 5 7 9 10 5 5 5 3 3 3 3 3 3
3 4 3 5 5 5 5 5 4 5 5 4 4 3 3 3 3 0 2 -1 1 -0 4 6 2 2 1 1 1 2 1 2 3 4 6 4 3 5 8 10 6 4 4 4 6 3 4 3 3 2 3 3 3 3
3 3 4 5 5 5 4 4 4 4 5 4 3 3 3 3 1 2 3 2 3 -1 4 5 5 2 1 1 2 2 1 2 3 4 6 5 5 5 7 10 6 4 4 3 3 3 4 3 4 2 2 2 3 3
4 4 5 6 5 5 4 4 4 5 4 3 4 3 3 4 3 2 1 2 2 1 2 5 6 4 1 4 4 2 3 3 3 4 3 5 5 5 9 6 5 4 4 4 4 3 3 2 2 2 2 3 3 3
4 5 5 6 5 4 4 5 5 4 3 4 3 3 1 1 2 2 2 2 -2 2 5 5 7 7 2 3 3 3 3 5 3 5 5 5 7 9 7 6 5 4 4 4 3 3 3 3 3 3 3 2 3 3
5 5 5 5 5 5 5 5 3 3 3 3 2 1 4 3 2 1 1 2 2 1 2 4 3 6 4 4 4 4 4 5 8 6 3 7 8 4 4 3 3 3 3 2 4 4 4 4 3 4 3 3 3 2
5 5 6 5 5 5 5 4 4 3 2 0 2 3 2 1 0 2 4 4 4 5 3 3 4 5 2 6 6 4 6 5 8 7 7 9 9 6 3 3 2 2 2 2 2 2 2 2 3 3 3 2 2 2
5 5 6 5 5 5 4 4 4 1 0 2 2 0 -0 2 4 5 5 5 5 7 4 5 4 3 3 2 5 4 6 5 9 4 7 11 7 5 4 3 3 2 2 2 2 2 2 2 2 2 2 2 2 2
5 6 6 5 5 4 4 4 3 3 3 -1 2 3 4 4 10 8 8 7 7 4 4 4 5 4 3 2 4 5 7 8 4 7 10 8 5 4 3 3 3 2 2 2 2 2 2 2 2 2 3 2 1 2
5 5 5 5 5 4 4 4 3 2 0 2 5 11 6 7 6 6 6 6 4 3 3 4 4 4 3 5 5 7 6 5 8 11 11 8 6 4 3 3 3 3 2 2 2 2 2 2 2 2 2 2 2 2
5 5 5 4 4 4 4 4 3 -1 1 4 4 10 6 4 4 4 3 4 3 2 3 4 4 4 5 6 5 6 8 9 10 11 8 6 4 3 3 3 3 2 2 2 2 2 3 3 2 2 1 1 2 1
5 6 4 4 5 5 4 2 -0 -0 1 3 4 5 4 5 5 4 4 4 3 3 3 3 5 6 6 6 7 8 9 11 9 6 4 4 4 3 3 3 3 2 2 2 2 2 2 3 2 2 1 2 1 1
7 2 5 5 5 5 4 1 1 4 3 4 4 3 4 4 4 4 4 4 2 3 5 4 7 8 5 7 8 6 8 7 5 5 4 3 3 4 3 3 2 2 2 2 2 2 2 2 2 2 3 2 1 1
2 3 4 5 4 1 1 1 2 3 5 3 5 4 3 3 3 3 3 3 3 4 4 6 4 7 7 8 8 6 4 4 3 3 3 3 2 2 2 2 2 2 2 2 2 2 1 2 2 3 2 2 1 2
4 3 4 4 3 2 3 3 1 5 4 3 3 2 3 3 2 2 2 2 2 2 3 4 7 7 6 5 5 4 4 4 4 3 2 2 2 1 2 2 2 2 2 2 2 2 2 1 2 2 2 2 3 2
4 4 3 3 2 2 5 4 1 3 4 3 2 3 2 3 2 2 2 2 3 4 5 6 6 4 4 4 3 3 3 3 3 4 4 2 2 1 1 2 2 1 1 2 1 3 1 1 1 1 2 2 4 4
6 3 3 2 1 2 3 3 4 3 3 3 3 3 3 3 3 3 4 3 4 5 6 4 4 3 2 2 2 2 2 2 3 3 3 3 2 2 1 1 1 1 2 2 2 2 2 2 2 1 1 1 1 2
2 4 1 2 3 3 3 2 3 3 3 3 3 3 4 5 4 4 3 5 4 4 3 3 3 2 2 2 1 1 1 1 1 2 4 3 2 2 2 1 1 2 2 1 1 2 2 1 1 1 1 1 1 1
4 3 3 4 6 7 7 2 5 4 6 6 4 6 5 5 3 2 4 4 3 2 2 2 2 1 2 1 1 1 1 1 2 1 2 1 1 1 1 1 1 2 2 1 1 1 1 3 2 1 0 1 1 1
6 4 6 7 6 9 5 6 4 5 5 6 6 7 6 4 3 4 6 4 2 2 2 2 2 2 2 2 2 2 1 1 1 1 1 1 2 2 1 1 1 1 1 1 1 1 1 1 3 1 1 1 1 2
8 8 8 12 6 7 8 8 7 7 8 7 7 7 5 4 6 6 6 4 3 3 2 1 2 2 3 2 2 1 0 1 2 2 1 1 1 2 1 1 1 1 1 1 2 2 1 1 1 2 2 2 2 2
12 7 9 8 7 7 8 9 8 8 7 7 7 4 4 5 7 8 5 3 3 2 2 2 2 2 2 2 3 2 1 0 1 2 1 1 1 2 2 2 2 2 -0 0 1 2 2 2 2 2 2 3 6 3
11 8 6 4 4 5 6 5 5 6 8 8 6 6 6 9 8 5 3 2 2 1 0 1 1 2 2 2 1 0 0 -0 0 1 -0 0 1 0 1 2 2 3 1 1 1 2 2 2 2 2 2 1 2 2
5 5 7 6 5 5 6 6 7 7 6 4 5 8 8 7 6 3 2 1 0 0 0 0 -0 0 1 0 0 0 0 -0 -0 -0 -0 0 -0 0 1 1 2 7 3 2 2 3 3 3 3 3 3 3 2 1
6 4 4 6 6 6 6 6 6 4 3 4 6 6 5 2 1 2 1 0 -0 0 1 1 1 -0 0 0 -0 -0 0 0 1 3 3 3 3 2 2 3 3 3 3 3 7 7 4 5 5 4 4 3 2 1
5 3 5 6 6 7 5 3 3 2 2 1 2 2 2 2 1 -0 -0 0 1 1 1 1 1 1 1 1 1 1 -0 -0 0 1 3 3 3 2 3 3 3 3 3 3 3 3 6 5 5 5 4 4 3 2
3 4 5 5 5 4 3 2 1 1 2 2 2 3 4 2 1 0 0 0 0 0 1 1 1 0 1 1 1 2 2 0 0 0 1 2 2 2 3 3 3 3 4 4 4 4 5 5 5 5 5 5 4 4
4 5 5 6 5 2 2 3 3 3 3 3 4 3 3 3 4 2 0 0 1 1 4 2 1 1 0 -0 0 0 6 1 1 1 1 2 2 2 3 3 4 4 4 5 4 5 5 5 5 5 5 4 4 4
4 4 4 4 4 5 3 4 4 4 4 4 4 3 3 4 5 1 -0 -1 0 1 1 1 1 0 0 1 0 1 4 1 3 7 8 9 9 7 5 4 4 4 5 5 5 4 5 5 5 5 5 4 5 4

GFSWCAN_con_lsi_285.txt.gz
Lid_Strength_Index
3 3 3 4 4 4 5 5 4 4 4 3 3 3 3 3 4 5 2 -1 3 5 4 4 4 6 5 6 9 7 8 7 8 11 11 12 13 12 12 11 12 13 14 14 13 16 17 6 7 11 9 6 6 6
3 3 3 4 4 4 5 5 4 4 4 4 3 3 3 3 4 4 2 0 -0 3 4 1 2 2 3 3 6 6 7 7 7 9 10 10 12 11 12 15 9 13 11 13 12 13 8 7 7 6 5 6 6 6
3 3 3 4 4 4 5 5 4 4 4 4 4 4 3 3 4 4 2 0 1 4 4 4 4 1 0 1 1 7 6 5 6 5 8 9 12 10 14 13 11 9 7 10 10 8 7 6 5 4 4 5 5 4
2 3 3 4 4 4 5 5 4 4 4 4 4 4 4 4 4 3 1 1 1 3 7 5 1 2 0 1 1 2 4 3 4 5 7 9 11 7 11 10 10 9 8 9 10 7 6 6 5 5 4 4 4 4
2 3 3 4 4 4 5 4 4 4 4 4 4 4 4 4 4 3 -0 1 1 4 7 6 2 2 1 1 2 2 3 5 6 7 8 9 7 8 8 8 10 7 9 11 11 7 7 7 5 4 4 5 4 5
3 4 3 4 4 4 5 4 4 5 4 4 4 4 3 4 4 1 4 1 3 1 5 8 3 2 1 2 3 3 3 4 5 7 8 6 5 7 10 11 7 6 5 6 7 6 5 5 3 4 5 5 4 4
4 4 4 4 4 5 4 4 4 5 5 5 5 4 4 4 2 3 4 3 4 2 5 7 7 3 2 2 3 4 3 4 5 6 7 7 7 6 9 12 7 6 5 4 4 4 6 5 6 4 4 5 4 4
4 5 5 4 4 4 4 4 4 5 5 5 4 3 3 4 3 2 1 3 3 2 4 7 7 6 2 5 6 4 5 5 5 6 6 7 7 7 11 7 6 5 4 4 4 4 4 4 3 4 4 4 5 4
5 5 5 5 4 4 4 4 5 4 5 4 3 3 2 1 3 2 2 1 -1 3 7 6 9 9 3 5 5 5 5 8 5 7 7 7 9 11 8 7 6 5 5 5 4 4 4 4 4 4 4 5 5 4
4 5 5 5 5 5 5 5 4 5 4 3 2 2 4 3 1 1 1 4 4 4 4 7 5 7 5 6 6 7 6 8 10 8 6 9 9 6 5 5 4 4 4 4 5 6 5 5 4 4 4 3 3 4
5 5 6 5 5 5 5 4 5 4 1 1 3 4 1 1 1 3 5 6 5 6 5 5 5 7 4 7 8 6 8 7 10 9 9 10 10 7 4 4 3 3 3 3 3 3 3 4 4 4 4 3 3 3
5 5 6 5 5 4 4 4 4 2 2 4 4 2 1 3 4 5 7 6 7 8 5 6 5 5 5 4 7 6 8 7 11 6 10 12 8 5 4 4 3 3 3 3 3 3 3 3 3 3 3 3 3 3
6 5 5 4 4 5 4 4 3 4 3 1 2 3 5 5 9 8 9 8 8 6 5 5 6 5 5 4 6 7 8 9 6 10 11 10 6 5 4 4 3 3 3 3 3 3 3 3 2 3 3 3 2 2
6 5 5 5 5 5 4 4 4 3 1 4 4 10 8 7 7 7 7 7 5 5 5 5 6 6 5 6 6 8 7 7 10 13 12 8 6 5 4 3 4 4 3 3 3 3 3 3 3 2 2 2 2 3
6 6 6 5 5 5 4 4 3 0 2 4 5 10 7 5 5 4 4 5 4 4 4 6 5 5 6 7 6 7 8 11 11 12 9 6 5 4 4 4 4 4 3 3 4 4 3 3 3 3 2 2 2 2
6 7 5 5 5 4 4 3 -0 -0 2 3 4 6 5 6 6 5 5 5 3 4 4 5 6 7 7 7 8 9 10 12 10 8 6 5 5 4 4 4 3 3 3 3 3 3 3 3 3 3 2 2 2 2
8 4 5 5 4 4 4 2 1 3 3 4 6 4 5 5 6 5 4 5 3 5 7 6 9 8 7 8 9 8 10 8 6 6 5 4 5 4 4 3 3 3 3 3 3 2 3 2 2 3 3 3 2 2
4 4 4 4 4 2 -0 1 2 3 5 4 6 5 4 4 5 4 4 3 4 5 5 6 5 7 8 10 9 7 6 5 4 4 4 4 3 3 3 3 3 2 3 3 3 2 2 3 3 3 3 2 2 2
5 4 4 4 4 3 3 3 2 5 5 4 4 3 4 4 3 2 3 3 3 3 4 5 6 8 8 7 6 6 5 5 5 4 4 3 3 3 2 2 2 3 3 3 3 3 2 2 3 3 3 2 3 2
4 4 4 4 3 2 4 4 1 4 5 4 3 4 4 4 3 3 3 3 3 4 6 6 7 6 6 5 4 4 4 3 4 5 4 3 2 2 3 3 3 2 3 2 2 4 3 3 2 2 2 3 3 3
5 3 3 2 1 2 3 3 4 4 3 4 3 4 4 3 4 4 4 3 4 5 6 5 5 4 3 3 2 2 3 3 4 4 4 4 3 2 3 2 2 2 3 3 3 3 3 3 2 2 2 2 2 2
1 3 1 0 3 3 3 2 3 2 4 4 4 3 5 5 5 5 3 5 5 4 4 4 4 3 3 3 2 2 2 2 2 2 4 3 3 3 3 2 2 3 3 3 3 3 2 2 2 2 2 2 2 2
3 3 2 3 6 8 7 1 4 3 5 5 4 5 5 5 4 2 5 4 4 3 2 3 2 2 2 2 2 2 1 2 3 2 2 2 2 2 2 2 2 2 3 2 2 2 2 4 3 3 2 2 2 2
3 3 5 6 6 9 5 5 4 5 5 6 7 7 6 5 3 5 6 5 4 2 3 2 2 3 3 2 3 3 2 2 2 2 2 2 3 2 2 2 1 1 1 1 1 2 1 2 3 2 2 3 4 4
8 8 7 12 6 7 8 8 7 7 8 7 8 7 6 4 6 6 7 5 4 3 3 2 2 3 3 3 3 2 1 2 2 3 2 1 2 2 2 2 1 1 2 2 2 2 2 1 2 2 2 2 3 3
13 8 9 8 8 8 8 9 8 8 7 8 7 5 4 6 8 8 6 5 4 3 3 3 3 3 3 2 3 3 2 1 1 2 2 1 2 2 3 3 3 3 3 3 3 3 3 3 3 4 3 3 6 3
11 9 7 4 5 6 6 6 5 6 7 8 6 6 6 9 9 6 3 2 3 2 1 1 2 2 2 2 1 1 1 1 1 1 1 1 1 1 2 4 5 5 4 3 4 4 5 5 5 5 5 5 4 4
6 6 8 6 6 5 7 7 7 7 6 4 5 7 8 7 7 4 3 1 1 1 1 1 1 1 1 1 1 1 1 0 0 0 0 1 1 1 2 3 3 7 4 4 4 4 4 4 5 5 5 6 6 5
7 5 5 7 6 6 6 6 6 4 3 4 6 6 6 4 2 2 2 1 1 1 2 2 1 1 1 1 1 1 1 1 2 3 4 4 3 3 3 3 3 3 3 4 7 7 6 6 5 5 5 5 5 4
6 4 6 6 6 7 4 3 4 3 2 2 2 3 3 2 1 0 1 1 1 2 1 1 1 1 2 2 2 1 1 0 1 2 4 4 4 3 3 3 4 4 4 4 4 5 7 5 5 4 5 5 5 5
4 4 5 5 6 4 3 2 2 2 2 3 2 4 4 3 2 1 1 1 1 1 1 2 2 1 1 2 2 2 2 1 1 1 2 3 3 3 4 4 5 5 5 5 5 5 5 5 5 5 5 6 5 5
4 5 5 6 5 4 2 3 3 4 4 4 5 3 3 4 5 3 1 1 1 2 4 2 1 1 0 0 0 1 6 1 1 2 2 3 3 4 5 5 6 5 6 6 6 6 5 5 5 5 6 5 5 5
4 4 4 4 5 5 4 4 4 5 5 5 5 4 4 4 5 2 0 -0 1 1 1 1 1 0 -0 0 0 1 5 1 2 8 9 8 8 8 7 5 5 5 6 6 6 6 6 6 5 5 5 5 5 4

GFSWCAN_con_lsi_288.txt.gz
Lid_Strength_Index
3 3 3 4 4 5 5 5 4 4 4 4 3 3 3 4 5 6 5 3 5 8 7 6 6 8 8 8 10 7 8 7 8 11 12 13 13 12 13 11 12 13 14 14 14 16 18 6 7 12 9 8 8 6
3 4 4 4 5 5 5 5 4 4 4 4 3 3 3 4 4 4 5 2 2 5 6 4 5 5 4 5 6 6 7 8 8 10 10 10 12 12 12 15 9 13 11 13 12 13 8 7 7 6 6 7 7 6
3 3 4 4 5 5 5 5 4 4 4 4 4 3 3 3 4 5 5 4 3 6 6 6 6 4 3 3 3 7 7 5 8 7 8 9 12 10 13 12 11 9 7 10 10 8 7 6 6 6 6 6 5 5
3 3 4 4 5 5 5 5 4 4 4 4 4 4 3 4 4 4 4 4 4 5 8 7 3 5 3 3 3 4 4 4 6 5 8 9 11 8 11 9 10 9 8 10 10 8 7 6 5 5 6 6 5 5
3 3 4 4 4 5 5 5 5 4 4 4 4 4 4 4 4 5 4 6 5 5 8 8 5 4 4 3 3 4 4 5 7 7 8 10 8 8 8 8 10 8 9 11 11 7 8 7 5 5 7 6 6 5
3 3 4 4 4 5 5 4 4 4 4 4 4 4 4 4 4 3 5 4 5 5 5 9 6 5 5 4 4 6 6 6 6 7 8 7 6 8 11 12 7 6 6 6 7 5 6 5 5 5 7 7 5 5
3 3 4 4 4 5 4 4 4 4 4 4 5 4 4 4 5 6 6 6 6 5 6 8 8 5 4 5 6 7 7 7 6 7 7 7 7 6 9 12 7 6 5 5 4 4 6 4 5 5 6 6 5 5
3 4 4 4 5 4 4 4 4 4 5 5 5 5 4 4 4 7 4 4 5 4 5 8 8 7 5 6 7 6 7 8 8 8 7 8 7 8 11 7 6 5 5 4 4 4 5 4 4 4 5 5 5 5
4 5 5 5 4 4 4 4 4 5 5 5 5 4 4 5 6 6 2 3 4 4 7 8 9 11 6 7 8 7 7 10 8 9 8 7 9 11 9 7 6 5 6 5 4 4 4 4 4 4 4 4 5 5
5 6 6 5 4 4 4 4 4 5 5 4 4 5 8 7 2 1 4 7 7 6 6 8 7 9 7 8 8 8 8 9 10 9 6 9 10 6 5 4 5 5 4 4 6 6 5 5 5 4 4 4 4 4
6 6 6 5 5 5 4 4 5 5 4 5 6 7 5 2 4 5 8 8 7 9 7 8 8 9 7 9 9 9 10 9 11 10 10 10 11 7 4 4 4 4 4 4 4 4 4 4 4 4 4 3 3 3
6 6 6 5 5 5 5 5 5 6 7 6 7 5 4 5 8 8 9 8 8 9 8 8 8 7 8 7 8 8 10 8 12 7 10 12 8 5 5 4 4 4 4 4 4 4 4 3 3 3 3 3 3 3
6 6 6 6 5 5 5 5 5 5 4 4 4 5 8 7 10 10 11 10 10 7 7 7 7 8 7 7 8 8 9 10 7 11 12 10 6 5 5 4 4 4 4 4 4 4 4 3 3 3 3 3 3 3
6 6 6 6 5 5 5 5 5 4 3 5 7 11 8 9 9 9 9 9 7 7 7 7 7 8 7 8 9 10 9 8 12 14 13 8 6 5 4 4 5 6 5 5 5 4 4 3 3 3 3 3 3 3
6 6 6 6 5 5 5 5 4 3 3 6 6 10 8 7 7 7 7 8 7 6 7 7 8 8 9 9 9 9 10 13 12 13 10 7 5 5 5 5 5 5 5 4 4 4 4 4 4 4 3 3 3 2
6 6 6 5 5 5 5 4 2 2 4 5 6 8 7 8 8 8 8 8 7 7 7 7 9 9 9 10 9 11 12 13 11 8 6 5 6 5 6 5 4 4 3 4 4 4 3 3 4 4 3 3 3 3
7 7 6 5 5 5 4 4 3 6 6 5 7 6 7 8 9 8 8 8 7 7 9 8 9 10 9 10 11 9 11 9 7 6 5 5 5 5 4 5 4 4 4 5 5 4 3 2 3 4 4 4 3 3
7 6 4 5 5 4 3 5 5 5 6 5 7 7 7 7 7 8 8 7 8 8 8 9 8 9 11 11 11 8 7 6 5 5 5 4 4 4 4 4 4 4 4 4 4 3 3 4 4 4 4 4 4 3
7 7 5 5 5 6 6 6 5 8 7 7 7 7 7 7 7 6 6 6 6 6 8 8 8 10 9 8 8 7 6 6 6 6 5 4 4 3 3 4 3 4 4 4 4 4 4 3 3 4 4 4 4 4
5 5 4 4 4 5 7 8 5 6 8 7 6 6 6 7 7 6 6 7 7 7 8 8 8 8 8 7 6 6 6 6 7 7 6 6 4 3 3 3 3 4 4 4 3 5 5 4 3 3 3 4 4 4
5 5 4 4 4 5 6 6 7 7 7 7 7 6 7 7 7 7 7 7 8 8 8 7 7 6 6 6 5 6 6 5 5 6 6 6 5 4 4 3 4 4 4 5 5 4 4 4 3 2 3 3 3 3
5 4 5 4 6 6 6 6 7 6 6 7 7 7 7 7 7 7 7 8 8 8 7 6 6 6 5 5 5 4 4 4 4 4 5 5 5 5 5 4 4 4 4 4 4 4 3 3 3 2 2 2 3 3
4 4 5 6 7 10 9 6 7 7 8 8 7 8 8 8 7 6 9 8 7 6 5 6 5 5 5 4 4 4 3 4 5 5 4 4 4 4 4 4 4 4 4 3 3 3 3 4 3 3 3 3 3 4
4 5 7 7 9 10 6 8 7 7 7 8 8 9 8 8 7 8 9 8 7 6 6 6 5 5 5 5 5 5 4 4 5 5 4 4 5 5 4 4 4 5 4 4 4 4 3 3 4 3 4 4 3 3
11 11 9 16 8 8 8 9 9 9 10 9 9 9 9 8 10 9 9 8 6 7 6 6 6 6 6 5 5 4 3 4 5 5 4 5 5 5 5 4 5 6 5 6 6 5 6 5 6 6 5 5 6 5
15 9 11 9 9 10 10 10 10 10 9 9 9 8 8 9 10 10 8 6 6 6 6 6 6 6 6 5 5 5 5 4 4 5 4 5 5 5 6 7 7 7 6 6 7 7 6 6 6 6 6 6 7 6
14 11 10 8 8 8 9 8 8 9 9 9 9 9 9 10 10 7 6 5 5 5 4 4 4 5 5 5 4 4 3 3 4 4 4 4 5 5 6 8 8 8 7 6 7 7 6 6 6 6 6 5 5 5
8 9 10 9 9 8 9 9 9 9 9 8 8 9 9 8 9 6 5 4 4 3 4 3 3 3 4 3 3 4 4 3 3 3 4 4 5 6 6 6 7 9 7 7 7 7 6 6 5 5 5 6 5 5
9 8 8 9 9 8 8 8 8 8 6 7 8 8 8 5 4 5 4 3 3 3 4 4 4 4 4 3 3 4 3 4 5 6 7 7 7 6 6 7 7 7 7 7 9 9 7 7 6 6 5 5 5 5
9 8 8 8 8 9 8 6 6 5 5 5 5 5 5 5 4 3 3 4 4 4 3 3 4 4 4 5 5 5 4 4 4 5 7 7 7 7 7 7 7 8 8 8 8 7 10 8 8 6 6 5 5 5
7 7 7 7 8 7 6 5 4 4 4 5 5 6 6 5 4 3 3 4 3 3 4 4 4 4 4 5 5 6 6 4 4 4 5 6 7 7 8 7 8 8 8 8 8 8 8 8 7 7 7 7 6 6
7 7 7 7 7 5 4 5 6 6 6 6 7 5 6 6 6 5 3 3 3 4 5 5 4 5 4 4 4 5 7 5 5 5 5 6 7 7 7 8 8 8 8 9 9 9 9 9 8 8 7 7 7 6
6 6 6 6 7 7 5 6 6 6 6 7 6 5 5 5 6 4 2 2 2 3 4 4 4 4 4 4 4 5 6 4 6 9 9 9 9 9 8 9 9 8 9 9 9 9 9 9 9 9 8 8 8 7

GFSWCAN_con_lsi_291.txt.gz
Lid_Strength_Index
4 4 4 4 4 5 5 5 4 4 4 4 3 3 4 4 5 5 4 5 7 9 9 7 6 9 9 8 9 8 8 7 9 12 12 13 13 12 13 12 13 14 14 15 14 16 17 7 7 11 9 8 7 7
4 4 4 4 4 5 5 5 4 4 4 4 3 3 4 4 4 4 4 3 4 7 8 6 7 6 6 6 7 8 8 8 8 10 10 10 13 11 13 16 9 14 11 13 12 13 8 7 8 7 6 7 7 7
3 4 4 4 4 5 5 5 4 4 4 4 4 3 4 4 4 4 5 5 4 7 7 7 7 5 4 5 4 8 7 6 9 7 8 9 12 10 14 13 12 9 8 11 11 8 8 7 6 6 7 7 6 6
4 4 4 4 4 5 5 5 5 4 4 4 4 3 3 4 4 4 7 7 4 7 9 8 5 6 4 3 3 5 5 5 6 7 8 10 11 8 11 10 11 9 8 10 10 8 7 6 6 7 7 6 6 6
3 3 4 4 4 5 5 5 4 4 4 4 4 3 4 4 4 5 7 7 5 6 9 8 6 5 5 4 4 5 6 6 7 8 9 10 8 8 8 8 10 8 9 11 11 8 9 8 6 6 7 7 6 6
3 4 4 4 4 5 5 4 4 4 4 4 3 4 4 4 5 4 7 5 6 5 7 9 7 6 5 5 6 7 6 6 7 7 8 7 7 8 11 12 7 6 6 7 8 6 5 5 4 4 6 6 6 6
3 4 4 4 4 4 4 4 4 4 4 4 4 4 4 4 6 7 8 7 6 5 7 9 8 6 5 7 7 7 8 7 7 8 8 8 7 7 9 12 7 6 5 5 5 5 6 6 6 4 5 6 5 5
3 4 4 4 4 4 4 4 4 4 4 4 4 5 4 4 5 7 6 4 5 5 6 9 9 7 6 8 8 8 8 8 8 8 7 8 7 8 10 7 7 6 5 5 5 4 5 4 3 4 4 4 5 6
3 4 5 5 4 4 4 4 4 4 4 4 4 4 6 7 8 7 2 3 4 6 8 8 11 11 6 7 8 7 9 10 9 9 8 7 9 11 8 8 7 6 6 6 5 4 4 5 4 4 4 4 4 4
4 4 5 4 4 4 4 4 4 4 4 4 5 9 9 7 2 3 6 8 7 7 7 9 9 10 8 9 9 9 9 10 11 9 7 9 9 6 5 5 5 4 4 4 6 6 6 5 5 4 4 4 4 4
4 5 5 5 4 4 4 4 4 5 5 8 9 9 6 3 6 7 9 9 8 9 8 9 9 10 8 9 10 10 10 9 11 10 9 10 11 7 4 5 5 4 4 5 6 6 5 5 5 5 4 4 3 3
5 6 6 6 5 4 4 4 5 7 8 8 8 7 6 6 8 9 10 9 9 10 8 8 8 8 8 8 9 9 11 9 13 8 10 12 8 6 5 5 4 5 5 5 5 5 5 4 4 4 4 4 4 3
6 7 6 6 6 5 5 5 5 5 6 6 6 7 8 8 11 10 12 10 10 8 8 8 8 8 8 8 9 9 10 11 8 11 12 10 6 5 5 4 5 4 4 5 5 4 4 3 3 4 4 4 4 4
7 6 6 6 6 5 5 5 5 6 5 6 7 11 9 10 10 10 9 9 8 8 8 8 8 9 9 9 9 10 10 8 12 14 13 9 6 5 5 5 5 5 5 4 4 4 4 4 3 4 4 4 4 4
7 6 6 6 5 5 5 5 5 5 5 6 7 11 9 8 9 8 8 9 8 8 8 8 9 9 10 10 10 9 11 13 12 12 10 7 5 6 6 5 5 5 5 5 5 4 4 3 4 5 4 4 4 4
6 6 7 6 5 5 5 5 4 4 5 5 6 8 8 9 9 9 9 10 8 8 8 8 9 10 10 10 10 11 12 13 11 9 7 6 6 6 6 5 5 5 4 5 5 5 4 4 4 4 3 4 4 3
6 8 6 5 5 5 5 5 5 6 6 6 7 7 8 9 10 9 10 9 8 8 10 9 11 12 9 10 11 9 11 9 8 7 6 6 6 6 5 5 5 4 4 5 4 4 3 3 4 4 4 3 3 3
7 7 6 5 6 6 5 5 5 5 7 7 9 9 8 8 9 9 9 8 9 10 9 10 9 9 11 11 11 9 8 7 6 6 6 5 5 5 4 5 4 4 4 4 4 4 4 4 4 4 4 4 4 4
8 7 6 6 6 6 8 7 6 8 8 8 8 8 8 8 8 8 7 8 8 8 9 8 9 10 10 9 9 8 8 7 7 6 6 4 4 4 4 4 4 4 5 5 5 5 5 5 4 4 4 4 4 4
6 6 6 5 5 6 8 8 6 8 9 8 8 8 8 9 8 7 7 8 8 8 8 8 9 9 8 8 7 8 8 8 7 8 7 7 5 5 4 5 5 5 5 5 4 5 4 4 3 3 3 3 4 4
6 6 5 5 5 7 7 8 8 8 8 8 8 8 9 8 8 8 8 8 8 8 9 8 8 7 7 7 7 7 7 6 6 6 7 7 5 5 5 5 5 5 5 5 5 4 3 3 3 3 2 2 2 2
7 5 6 5 7 7 8 8 8 8 8 8 8 8 8 8 8 8 8 8 8 8 7 7 7 7 7 6 6 6 5 5 5 6 6 6 6 5 5 5 5 5 5 5 5 5 4 4 4 4 4 4 4 3
5 5 6 7 9 11 10 7 8 8 9 9 8 9 9 9 7 7 9 8 8 7 6 7 6 6 6 5 5 4 4 5 5 5 5 5 5 6 6 5 6 7 7 7 6 6 6 6 6 6 6 6 6 6
6 7 8 9 10 11 8 9 8 8 8 9 9 9 9 9 8 9 10 9 8 7 7 7 6 6 6 5 6 6 5 5 6 6 5 5 6 6 6 6 7 7 8 8 8 8 7 7 7 6 6 6 7 7
13 12 11 16 9 9 9 9 9 9 10 10 10 10 10 9 10 10 10 9 8 8 7 7 6 6 6 6 6 5 4 5 5 6 5 5 6 6 6 7 7 8 8 9 9 8 8 8 8 7 7 7 7 6
15 10 12 10 10 10 10 11 11 10 10 10 10 9 9 10 10 11 9 7 7 7 7 6 6 7 7 6 6 6 5 5 5 6 5 6 6 6 8 9 9 9 8 8 8 8 8 8 7 7 7 7 8 6
14 11 10 9 9 10 10 10 10 10 10 10 10 10 10 11 11 9 7 6 6 5 5 5 5 5 6 6 5 5 4 4 5 5 5 5 6 6 7 9 9 9 8 7 8 8 8 8 7 7 7 7 6 6
10 10 11 11 10 10 10 10 10 10 10 9 9 10 10 10 10 7 5 4 4 4 4 4 4 4 4 4 5 5 4 5 4 5 5 6 7 7 7 7 7 9 8 7 8 8 8 8 8 8 7 7 7 6
10 9 9 10 10 10 10 10 10 9 8 9 10 10 9 7 5 5 5 4 4 4 5 5 5 4 4 5 5 5 5 5 6 7 7 8 8 8 8 8 8 8 8 8 10 10 9 9 9 9 8 7 6 6
10 9 10 9 10 10 9 9 8 7 7 7 7 6 6 6 5 4 4 5 5 5 4 5 4 5 5 6 6 5 5 5 5 6 8 8 9 8 8 8 8 9 9 9 9 9 11 10 9 8 8 8 8 7
9 9 9 9 9 8 7 6 6 6 6 7 7 7 7 6 5 4 4 4 4 5 5 4 4 5 5 5 7 6 6 5 5 5 6 7 8 8 8 8 9 9 9 10 10 10 10 10 10 10 9 9 9 9
9 9 9 9 9 7 6 7 7 8 7 8 8 7 7 6 7 6 4 4 5 5 6 5 5 5 4 4 5 5 8 5 5 5 6 7 8 8 8 9 9 9 10 10 10 11 11 11 11 11 11 10 10 9
8 8 8 7 8 8 7 7 7 7 7 8 7 6 7 7 7 5 4 3 3 4 4 4 3 4 5 4 5 5 7 5 6 9 10 10 10 9 9 9 9 9 10 10 11 11 11 11 11 11 11 11 11 10

GFSWCAN_con_lsi_297.txt.gz
Lid_Strength_Index
4 4 5 5 5 5 4 4 4 4 4 4 3 4 3 3 4 3 3 3 3 5 6 5 5 5 5 5 7 6 6 6 7 10 10 11 11 11 11 10 11 12 13 13 12 13 15 5 6 9 7 5 5 4
4 4 5 5 5 5 5 4 4 4 4 4 4 3 3 3 3 3 3 3 4 4 5 5 5 4 3 3 5 5 6 7 6 8 8 9 11 10 11 13 8 12 10 11 10 10 6 5 5 4 4 4 5 5
3 4 4 5 5 5 5 4 4 4 4 4 4 3 2 3 4 2 2 4 3 4 5 5 5 4 3 2 0 5 5 4 5 4 6 8 11 8 12 11 10 8 6 9 9 7 6 5 4 4 4 4 3 3
3 4 4 4 5 5 5 4 4 4 4 4 4 3 3 3 4 4 2 3 3 4 6 4 2 3 2 2 1 1 3 2 3 3 6 8 9 6 9 8 9 8 7 8 9 7 6 6 4 4 4 3 3 4
4 4 4 4 5 5 5 4 4 4 4 4 3 3 3 3 3 3 4 3 2 3 6 5 3 2 2 1 2 2 2 3 4 6 7 8 7 7 6 7 8 7 8 9 10 6 7 6 4 4 4 4 3 4
4 4 4 4 4 5 4 5 4 4 4 3 3 3 3 4 4 2 3 3 3 2 4 7 3 4 3 3 3 3 3 3 4 6 6 6 4 6 8 10 6 5 5 5 6 4 4 4 3 3 4 3 3 3
4 4 4 4 4 4 4 4 4 4 4 4 3 3 4 4 3 3 4 4 4 1 4 6 6 4 4 4 4 3 2 4 4 5 6 6 6 5 7 10 7 5 4 4 3 3 5 4 5 4 3 3 2 2
4 4 5 5 4 4 5 4 4 4 4 4 4 4 5 5 5 3 3 4 3 2 3 7 6 5 4 5 5 4 4 4 5 5 5 6 5 5 9 7 5 5 4 4 4 4 5 5 5 4 3 3 3 3
4 4 5 5 5 5 5 4 4 4 4 4 4 5 3 3 3 3 3 2 2 2 6 6 7 8 4 5 4 4 4 7 4 6 6 5 7 10 7 6 5 4 5 6 5 5 5 5 5 4 4 4 4 3
4 5 5 5 5 5 4 4 4 4 4 4 2 3 4 4 4 3 2 3 3 3 3 6 6 6 5 5 6 5 5 7 9 7 5 8 9 5 4 4 4 4 4 4 5 5 4 4 4 4 4 3 3 3
4 5 5 5 4 4 4 4 4 4 3 2 4 5 4 4 3 4 5 6 5 6 5 5 6 6 5 6 6 6 7 6 10 8 8 9 10 6 4 4 3 3 3 3 2 2 2 3 3 3 3 3 2 2
5 6 5 5 4 4 4 4 4 3 4 4 5 5 5 4 4 6 7 6 7 8 5 6 6 5 5 5 5 6 8 7 12 6 9 12 8 5 4 4 3 3 2 2 2 2 2 2 2 2 2 2 2 2
6 5 5 4 4 4 4 4 4 4 5 3 4 5 5 6 9 9 10 8 8 6 6 5 6 5 4 5 5 6 9 10 6 9 11 9 6 5 4 3 3 2 2 2 2 2 2 2 2 2 2 2 1 2
5 5 4 4 4 4 4 4 4 4 2 4 6 11 8 8 8 7 7 6 5 5 5 5 5 6 5 6 6 9 8 7 11 12 11 7 6 4 3 3 3 3 2 2 2 2 2 2 2 2 1 1 2 2
5 4 4 4 4 5 5 4 4 2 2 5 6 11 9 7 6 6 6 6 6 6 5 5 5 5 6 7 7 8 10 12 11 11 8 5 4 3 4 3 3 3 3 2 2 2 2 2 2 2 1 1 1 1
5 4 5 5 5 5 6 4 3 3 3 5 7 8 7 7 7 6 7 6 6 5 5 4 6 7 8 8 9 10 11 12 9 6 5 4 4 3 3 3 2 2 2 2 2 2 2 2 2 2 1 1 1 1
5 5 5 6 6 6 6 3 2 4 6 6 8 6 6 6 7 6 6 6 6 5 6 6 8 9 6 9 10 8 9 7 6 5 4 3 3 3 3 2 2 2 2 2 2 2 2 1 1 2 2 2 1 1
6 6 6 6 6 5 4 4 4 5 7 7 7 6 5 5 6 5 5 5 5 5 5 7 5 8 9 10 9 7 5 4 4 4 3 3 2 2 2 2 2 2 2 2 2 2 2 2 3 3 3 3 3 2
6 6 6 6 6 5 6 5 5 7 7 6 5 5 5 5 5 5 5 5 5 5 4 5 7 8 8 6 6 5 4 4 4 4 3 2 2 2 2 2 2 2 2 2 2 3 3 3 3 4 4 4 5 5
6 6 6 6 5 5 6 6 5 5 6 5 5 5 5 5 5 5 5 5 4 4 6 7 7 5 5 4 4 4 3 3 3 4 3 2 2 2 2 2 2 2 2 2 3 6 4 5 5 4 5 5 5 6
5 5 5 5 5 5 6 7 6 6 5 5 5 5 5 5 5 5 5 5 4 6 6 5 4 4 4 3 3 3 3 3 3 2 3 3 1 1 1 2 2 2 3 4 4 5 6 6 5 5 5 6 6 6
5 6 5 5 6 6 6 6 6 6 5 6 6 5 6 5 5 5 5 5 5 4 4 4 4 4 4 4 3 2 2 2 2 2 5 4 2 2 2 2 2 3 3 4 5 6 5 5 5 6 6 6 7 7
6 5 6 6 7 8 8 6 6 6 7 7 6 7 6 5 5 4 5 5 5 4 3 3 3 3 3 2 2 2 2 2 2 2 2 1 1 2 2 2 3 3 4 4 5 5 5 8 7 7 6 6 7 7
7 7 8 9 8 9 6 7 7 7 7 7 7 7 6 5 5 6 7 5 4 4 4 3 3 3 3 3 2 2 2 1 2 1 1 2 2 2 2 2 3 3 4 4 5 5 6 6 8 7 7 7 7 7
10 11 9 12 8 8 9 9 8 8 9 8 7 7 6 6 7 8 7 5 4 4 4 4 3 3 3 3 2 2 1 1 2 2 1 1 1 2 3 3 3 3 3 5 5 6 6 6 7 7 7 7 8 8
13 9 9 9 9 8 8 9 9 9 8 8 8 7 6 7 9 9 6 4 4 4 3 3 3 3 3 2 2 2 2 1 1 2 1 1 2 2 3 4 4 4 4 5 6 6 7 7 7 7 8 8 10 8
12 10 8 7 7 7 8 7 7 8 9 9 8 8 8 10 9 6 4 3 3 2 2 2 2 2 2 2 1 1 1 1 1 1 1 1 1 1 2 3 4 4 4 5 5 6 7 7 7 8 8 8 7 7
8 8 9 8 7 7 8 8 9 9 8 7 7 9 9 8 7 4 3 1 2 1 1 1 1 1 1 1 0 1 1 1 2 2 2 2 2 2 3 3 3 9 5 5 5 6 6 7 7 8 8 8 8 7
8 7 8 9 9 8 8 8 8 6 6 6 7 7 6 5 3 3 1 1 1 2 2 2 1 1 1 1 1 1 1 2 2 3 3 3 2 2 3 3 4 4 4 5 10 9 7 7 7 7 8 8 7 7
9 7 8 9 9 9 7 6 6 5 5 4 4 4 4 3 2 2 2 2 2 2 2 1 1 1 2 2 2 1 1 1 1 2 3 3 2 2 3 4 4 4 4 5 6 6 11 9 8 7 7 7 8 8
8 8 8 8 8 7 6 5 5 4 4 4 4 4 4 3 3 2 2 1 1 1 1 2 2 1 2 2 2 2 2 0 1 1 1 1 2 3 3 3 3 4 4 5 6 6 6 7 7 8 8 8 8 8
8 8 8 9 8 6 5 5 5 5 5 5 4 4 4 4 5 2 1 1 1 2 3 3 2 2 1 0 0 0 6 -0 0 1 1 2 2 2 2 3 4 4 5 5 6 6 6 7 7 8 8 8 8 8
8 8 8 7 7 7 5 5 6 6 5 5 5 4 4 4 5 2 -0 0 1 1 1 1 0 0 -0 -0 0 0 4 0 2 8 8 8 8 6 3 3 4 4 5 5 5 5 6 6 7 7 8 8 8 8